Time,TemperatureF,DewpointF,PressureIn,WindDirection,WindDirectionDegrees,WindSpeedMPH,WindSpeedGustMPH,Humidity,HourlyPrecipIn,Conditions,Clouds,dailyrainin,SoftwareType,DateUTC
2013-02-09 00:04:00,41.4,4.3,30.00,North,0,0.0,4.0,21,0.00,,,-99.99,Weather View 32 v60,2013-02-09 05:04:00,
2013-02-09 00:09:00,41.2,4.2,30.00,North,0,0.0,3.0,21,0.00,,,-99.99,Weather View 32 v60,2013-02-09 05:09:00,
2013-02-09 00:14:00,41.0,4.0,30.00,North,0,0.0,0.0,21,0.00,,,-99.99,Weather View 32 v60,2013-02-09 05:14:00,
2013-02-09 00:19:00,41.0,4.0,30.00,North,0,0.0,0.0,21,0.00,,,-99.99,Weather View 32 v60,2013-02-09 05:19:00,
2013-02-09 00:26:00,40.8,3.9,30.00,North,0,0.0,0.0,21,0.00,,,-99.99,Weather View 32 v60,2013-02-09 05:26:00,
2013-02-09 00:29:00,40.8,3.9,30.00,North,0,0.0,0.0,21,0.00,,,-99.99,Weather View 32 v60,2013-02-09 05:29:00,
2013-02-09 00:39:00,40.5,3.6,29.97,North,0,0.0,0.0,21,0.00,,,-99.99,Weather View 32 v60,2013-02-09 05:39:00,
2013-02-09 00:49:00,39.7,3.0,30.00,North,0,0.0,0.0,21,0.00,,,-99.99,Weather View 32 v60,2013-02-09 05:49:00,
2013-02-09 00:59:00,39.6,2.8,30.00,North,0,0.0,0.0,21,0.00,,,-99.99,Weather View 32 v60,2013-02-09 05:59:00,
2013-02-09 01:04:00,39.2,2.5,30.00,North,0,0.0,0.0,21,0.00,,,-99.99,Weather View 32 v60,2013-02-09 06:04:00,
2013-02-09 01:14:00,38.8,2.2,30.00,North,0,0.0,0.0,21,0.00,,,-99.99,Weather View 32 v60,2013-02-09 06:14:00,
2013-02-09 01:19:00,38.5,1.9,30.00,North,0,0.0,0.0,21,0.00,,,-99.99,Weather View 32 v60,2013-02-09 06:19:00,
2013-02-09 01:24:00,38.5,1.9,30.00,North,0,0.0,0.0,21,0.00,,,-99.99,Weather View 32 v60,2013-02-09 06:24:00,
2013-02-09 01:29:00,38.5,1.9,30.00,North,0,0.0,0.0,21,0.00,,,-99.99,Weather View 32 v60,2013-02-09 06:29:00,
2013-02-09 01:39:00,38.1,1.6,30.00,North,0,0.0,0.0,21,0.00,,,-99.99,Weather View 32 v60,2013-02-09 06:39:00,
2013-02-09 01:49:00,38.1,1.6,30.00,North,0,0.0,0.0,21,0.00,,,-99.99,Weather View 32 v60,2013-02-09 06:49:00,
2013-02-09 01:54:00,37.8,1.3,30.00,North,0,0.0,0.0,21,0.00,,,-99.99,Weather View 32 v60,2013-02-09 06:54:00,
2013-02-09 01:59:00,37.4,1.0,30.00,West,264,0.0,3.0,21,0.00,,,-99.99,Weather View 32 v60,2013-02-09 06:59:00,
2013-02-09 02:04:00,37.4,1.0,30.03,West,264,0.0,3.0,21,0.00,,,-99.99,Weather View 32 v60,2013-02-09 07:04:00,
2013-02-09 02:09:00,37.2,0.8,30.03,West,264,0.0,3.0,21,0.00,,,-99.99,Weather View 32 v60,2013-02-09 07:09:00,
2013-02-09 02:19:00,37.0,0.7,30.03,West,264,0.0,3.0,21,0.00,,,-99.99,Weather View 32 v60,2013-02-09 07:19:00,
2013-02-09 02:29:00,36.9,0.5,30.03,West,264,0.0,3.0,21,0.00,,,-99.99,Weather View 32 v60,2013-02-09 07:29:00,
2013-02-09 02:34:00,36.7,0.4,30.03,West,264,0.0,3.0,21,0.00,,,-99.99,Weather View 32 v60,2013-02-09 07:34:00,
2013-02-09 02:44:00,36.5,0.2,30.03,West,264,0.0,3.0,21,0.00,,,-99.99,Weather View 32 v60,2013-02-09 07:44:00,
2013-02-09 02:52:00,36.3,1.1,30.03,West,264,0.0,3.0,22,0.00,,,-99.99,Weather View 32 v60,2013-02-09 07:52:00,
2013-02-09 02:59:00,36.1,0.9,30.03,West,264,0.0,0.0,22,0.00,,,-99.99,Weather View 32 v60,2013-02-09 07:59:00,
2013-02-09 03:04:00,36.0,0.8,30.03,West,264,0.0,0.0,22,0.00,,,-99.99,Weather View 32 v60,2013-02-09 08:04:00,
2013-02-09 03:09:00,35.8,0.6,30.03,West,264,0.0,0.0,22,0.00,,,-99.99,Weather View 32 v60,2013-02-09 08:09:00,
2013-02-09 03:14:00,35.4,0.3,30.03,West,264,0.0,0.0,22,0.00,,,-99.99,Weather View 32 v60,2013-02-09 08:14:00,
2013-02-09 03:24:00,35.1,0.0,30.03,West,264,0.0,0.0,22,0.00,,,-99.99,Weather View 32 v60,2013-02-09 08:24:00,
2013-02-09 03:29:00,34.9,-0.1,30.03,West,264,0.0,0.0,22,0.00,,,-99.99,Weather View 32 v60,2013-02-09 08:29:00,
2013-02-09 03:34:00,34.9,-0.1,30.03,West,264,0.0,0.0,22,0.00,,,-99.99,Weather View 32 v60,2013-02-09 08:34:00,
2013-02-09 03:39:00,35.1,0.0,30.03,West,264,0.0,0.0,22,0.00,,,-99.99,Weather View 32 v60,2013-02-09 08:39:00,
2013-02-09 03:44:00,34.9,-0.1,30.03,West,264,0.0,0.0,22,0.00,,,-99.99,Weather View 32 v60,2013-02-09 08:44:00,
2013-02-09 03:52:00,34.9,-0.1,30.03,West,264,0.0,0.0,22,0.00,,,-99.99,Weather View 32 v60,2013-02-09 08:52:00,
2013-02-09 04:04:00,34.7,-0.3,30.03,West,264,0.0,0.0,22,0.00,,,-99.99,Weather View 32 v60,2013-02-09 09:04:00,
2013-02-09 04:09:00,34.5,-0.4,30.03,West,264,0.0,0.0,22,0.00,,,-99.99,Weather View 32 v60,2013-02-09 09:09:00,
2013-02-09 04:19:00,34.5,-0.4,30.03,West,264,0.0,0.0,22,0.00,,,-99.99,Weather View 32 v60,2013-02-09 09:19:00,
2013-02-09 04:29:00,34.3,-0.6,30.03,West,264,0.0,0.0,22,0.00,,,-99.99,Weather View 32 v60,2013-02-09 09:29:00,
2013-02-09 04:39:00,34.3,2.1,30.06,West,264,0.0,0.0,25,0.00,,,-99.99,Weather View 32 v60,2013-02-09 09:39:00,
2013-02-09 04:49:00,34.2,2.0,30.06,West,264,0.0,0.0,25,0.00,,,-99.99,Weather View 32 v60,2013-02-09 09:49:00,
2013-02-09 04:54:00,34.0,1.8,30.06,West,264,0.0,0.0,25,0.00,,,-99.99,Weather View 32 v60,2013-02-09 09:54:00,
2013-02-09 04:59:00,33.8,1.7,30.06,West,264,0.0,0.0,25,0.00,,,-99.99,Weather View 32 v60,2013-02-09 09:59:00,
2013-02-09 05:04:00,33.6,1.5,30.06,West,264,0.0,0.0,25,0.00,,,-99.99,Weather View 32 v60,2013-02-09 10:04:00,
2013-02-09 05:09:00,33.3,1.2,30.06,NNW,327,4.0,4.0,25,0.00,,,-99.99,Weather View 32 v60,2013-02-09 10:09:00,
2013-02-09 05:19:00,32.9,0.9,30.06,NNW,327,0.0,4.0,25,0.00,,,-99.99,Weather View 32 v60,2013-02-09 10:19:00,
2013-02-09 05:24:00,32.7,0.7,30.06,NNW,327,0.0,4.0,25,0.00,,,-99.99,Weather View 32 v60,2013-02-09 10:24:00,
2013-02-09 05:30:00,32.5,0.6,30.06,NNW,327,0.0,4.0,25,0.00,,,-99.99,Weather View 32 v60,2013-02-09 10:30:00,
2013-02-09 05:39:00,32.5,0.6,30.06,NNW,327,0.0,4.0,25,0.00,,,-99.99,Weather View 32 v60,2013-02-09 10:39:00,
2013-02-09 05:44:00,32.5,0.6,30.06,NNW,327,0.0,4.0,25,0.00,,,-99.99,Weather View 32 v60,2013-02-09 10:44:00,
2013-02-09 05:49:00,32.5,0.6,30.09,NNW,327,0.0,4.0,25,0.00,,,-99.99,Weather View 32 v60,2013-02-09 10:49:00,
2013-02-09 05:54:00,32.5,0.6,30.09,NNW,327,0.0,4.0,25,0.00,,,-99.99,Weather View 32 v60,2013-02-09 10:54:00,
2013-02-09 06:04:00,32.2,0.3,30.09,NNW,327,0.0,4.0,25,0.00,,,-99.99,Weather View 32 v60,2013-02-09 11:04:00,
2013-02-09 06:10:00,32.2,0.3,30.09,NNW,327,0.0,4.0,25,0.00,,,-99.99,Weather View 32 v60,2013-02-09 11:10:00,
2013-02-09 06:19:00,32.0,0.1,30.09,NNW,327,0.0,0.0,25,0.00,,,-99.99,Weather View 32 v60,2013-02-09 11:19:00,
2013-02-09 06:24:00,32.0,0.1,30.09,NNW,327,0.0,0.0,25,0.00,,,-99.99,Weather View 32 v60,2013-02-09 11:24:00,
2013-02-09 06:29:00,31.6,-0.2,30.09,NNW,327,0.0,0.0,25,0.00,,,-99.99,Weather View 32 v60,2013-02-09 11:29:00,
2013-02-09 06:34:00,31.5,-0.3,30.09,NNW,327,0.0,0.0,25,0.00,,,-99.99,Weather View 32 v60,2013-02-09 11:34:00,
2013-02-09 06:44:00,31.5,-0.3,30.09,NNW,327,0.0,0.0,25,0.00,,,-99.99,Weather View 32 v60,2013-02-09 11:44:00,
2013-02-09 06:49:00,31.6,-0.2,30.12,NNW,327,0.0,0.0,25,0.00,,,-99.99,Weather View 32 v60,2013-02-09 11:49:00,
2013-02-09 06:54:00,31.3,-0.5,30.12,NNW,327,0.0,0.0,25,0.00,,,-99.99,Weather View 32 v60,2013-02-09 11:54:00,
2013-02-09 07:04:00,31.3,-0.5,30.12,NNW,327,0.0,0.0,25,0.00,,,-99.99,Weather View 32 v60,2013-02-09 12:04:00,
2013-02-09 07:09:00,31.3,-0.5,30.12,NNW,327,0.0,0.0,25,0.00,,,-99.99,Weather View 32 v60,2013-02-09 12:09:00,
2013-02-09 07:14:00,31.3,1.9,30.12,NNW,327,0.0,0.0,28,0.00,,,-99.99,Weather View 32 v60,2013-02-09 12:14:00,
2013-02-09 07:24:00,30.9,1.6,30.12,NNW,327,0.0,0.0,28,0.00,,,-99.99,Weather View 32 v60,2013-02-09 12:24:00,
2013-02-09 07:29:00,30.9,1.6,30.12,NNW,327,0.0,0.0,28,0.00,,,-99.99,Weather View 32 v60,2013-02-09 12:29:00,
2013-02-09 07:34:00,30.9,1.6,30.12,NNW,327,0.0,0.0,28,0.00,,,-99.99,Weather View 32 v60,2013-02-09 12:34:00,
2013-02-09 07:39:00,30.7,1.5,30.12,NNW,327,0.0,0.0,28,0.00,,,-99.99,Weather View 32 v60,2013-02-09 12:39:00,
2013-02-09 07:49:00,30.9,1.6,30.12,NNW,327,0.0,0.0,28,0.00,,,-99.99,Weather View 32 v60,2013-02-09 12:49:00,
2013-02-09 07:54:00,31.1,1.8,30.12,NNW,327,0.0,0.0,28,0.00,,,-99.99,Weather View 32 v60,2013-02-09 12:54:00,
2013-02-09 08:04:00,31.5,2.1,30.12,NNW,327,0.0,0.0,28,0.00,,,-99.99,Weather View 32 v60,2013-02-09 13:04:00,
2013-02-09 08:14:00,32.0,2.6,30.12,NNW,327,0.0,0.0,28,0.00,,,-99.99,Weather View 32 v60,2013-02-09 13:14:00,
2013-02-09 08:24:00,32.5,4.5,30.15,NNW,327,0.0,0.0,30,0.00,,,-99.99,Weather View 32 v60,2013-02-09 13:24:00,
2013-02-09 08:29:00,32.7,4.7,30.15,NNW,327,0.0,0.0,30,0.00,,,-99.99,Weather View 32 v60,2013-02-09 13:29:00,
2013-02-09 08:35:00,33.3,5.1,30.15,NNW,327,0.0,0.0,30,0.00,,,-99.99,Weather View 32 v60,2013-02-09 13:35:00,
2013-02-09 08:44:00,34.3,6.1,30.15,NNW,327,0.0,0.0,30,0.00,,,-99.99,Weather View 32 v60,2013-02-09 13:44:00,
2013-02-09 08:49:00,34.7,6.4,30.15,NNW,327,0.0,0.0,30,0.00,,,-99.99,Weather View 32 v60,2013-02-09 13:49:00,
2013-02-09 08:55:00,35.1,6.7,30.15,NNW,327,0.0,0.0,30,0.00,,,-99.99,Weather View 32 v60,2013-02-09 13:55:00,
2013-02-09 09:04:00,36.1,7.7,30.15,NNW,327,0.0,3.0,30,0.00,,,-99.99,Weather View 32 v60,2013-02-09 14:04:00,
2013-02-09 09:09:00,36.9,7.5,30.15,NNW,327,0.0,3.0,29,0.00,,,-99.99,Weather View 32 v60,2013-02-09 14:09:00,
2013-02-09 09:14:00,37.4,8.0,30.15,NNW,327,3.0,3.0,29,0.00,,,-99.99,Weather View 32 v60,2013-02-09 14:14:00,
2013-02-09 09:19:00,38.1,8.6,30.15,NNW,327,0.0,4.0,29,0.00,,,-99.99,Weather View 32 v60,2013-02-09 14:19:00,
2013-02-09 09:29:00,39.2,9.6,30.15,SW,235,3.0,4.0,29,0.00,,,-99.99,Weather View 32 v60,2013-02-09 14:29:00,
2013-02-09 09:34:00,39.9,10.2,30.15,WSW,253,3.0,4.0,29,0.00,,,-99.99,Weather View 32 v60,2013-02-09 14:34:00,
2013-02-09 09:44:00,41.0,11.1,30.15,WNW,284,0.0,4.0,29,0.00,,,-99.99,Weather View 32 v60,2013-02-09 14:44:00,
2013-02-09 09:49:00,41.7,11.8,30.15,SW,231,0.0,4.0,29,0.00,,,-99.99,Weather View 32 v60,2013-02-09 14:49:00,
2013-02-09 09:56:00,42.4,12.4,30.15,SW,231,0.0,4.0,29,0.00,,,-99.99,Weather View 32 v60,2013-02-09 14:56:00,
2013-02-09 10:04:00,44.1,13.0,30.15,West,273,3.0,4.0,28,0.00,,,-99.99,Weather View 32 v60,2013-02-09 15:04:00,
2013-02-09 10:09:00,44.6,13.5,30.15,West,276,4.0,4.0,28,0.00,,,-99.99,Weather View 32 v60,2013-02-09 15:09:00,
2013-02-09 10:19:00,45.9,11.1,30.15,NNW,339,0.0,5.0,24,0.00,,,-99.99,Weather View 32 v60,2013-02-09 15:19:00,
2013-02-09 10:24:00,46.4,11.5,30.15,West,259,3.0,5.0,24,0.00,,,-99.99,Weather View 32 v60,2013-02-09 15:24:00,
2013-02-09 10:29:00,46.9,12.0,30.15,WSW,249,3.0,5.0,24,0.00,,,-99.99,Weather View 32 v60,2013-02-09 15:29:00,
2013-02-09 10:39:00,48.6,10.3,30.18,WNW,295,3.0,5.0,21,0.00,,,-99.99,Weather View 32 v60,2013-02-09 15:39:00,
2013-02-09 10:49:00,49.8,11.4,30.18,SW,226,3.0,5.0,21,0.00,,,-99.99,Weather View 32 v60,2013-02-09 15:49:00,
2013-02-09 10:54:00,50.2,11.7,30.18,SSW,198,0.0,5.0,21,0.00,,,-99.99,Weather View 32 v60,2013-02-09 15:54:00,
2013-02-09 11:04:00,51.3,9.1,30.18,WNW,297,3.0,5.0,18,0.00,,,-99.99,Weather View 32 v60,2013-02-09 16:04:00,
2013-02-09 11:14:00,52.0,9.7,30.18,West,259,3.0,5.0,18,0.00,,,-99.99,Weather View 32 v60,2013-02-09 16:14:00,
2013-02-09 11:19:00,52.5,10.2,30.18,SSW,201,0.0,4.0,18,0.00,,,-99.99,Weather View 32 v60,2013-02-09 16:19:00,
2013-02-09 11:24:00,52.9,10.5,30.18,WSW,241,4.0,4.0,18,0.00,,,-99.99,Weather View 32 v60,2013-02-09 16:24:00,
2013-02-09 11:34:00,54.0,11.3,30.18,SSW,210,0.0,4.0,18,0.00,,,-99.99,Weather View 32 v60,2013-02-09 16:34:00,
2013-02-09 11:39:00,54.1,11.5,30.18,SW,224,3.0,4.0,18,0.00,,,-99.99,Weather View 32 v60,2013-02-09 16:39:00,
2013-02-09 11:49:00,55.2,11.1,30.18,SE,139,4.0,4.0,17,0.00,,,-99.99,Weather View 32 v60,2013-02-09 16:49:00,
2013-02-09 11:57:00,55.8,11.5,30.18,SSE,153,3.0,5.0,17,0.00,,,-99.99,Weather View 32 v60,2013-02-09 16:57:00,
2013-02-09 12:14:00,57.6,13.0,30.18,SE,138,6.0,6.0,17,0.00,,,-99.99,Weather View 32 v60,2013-02-09 17:14:00,
2013-02-09 12:24:00,58.1,13.4,30.18,SE,127,5.0,6.0,17,0.00,,,-99.99,Weather View 32 v60,2013-02-09 17:24:00,
2013-02-09 12:29:00,58.6,13.9,30.18,East,92,4.0,6.0,17,0.00,,,-99.99,Weather View 32 v60,2013-02-09 17:29:00,
2013-02-09 12:39:00,59.4,14.5,30.18,West,266,4.0,6.0,17,0.00,,,-99.99,Weather View 32 v60,2013-02-09 17:39:00,
2013-02-09 12:49:00,59.7,14.7,30.15,SE,128,4.0,6.0,17,0.00,,,-99.99,Weather View 32 v60,2013-02-09 17:49:00,
2013-02-09 12:54:00,60.1,13.7,30.15,ESE,111,0.0,6.0,16,0.00,,,-99.99,Weather View 32 v60,2013-02-09 17:54:00,
2013-02-09 12:59:00,60.4,13.9,30.15,SE,127,5.0,6.0,16,0.00,,,-99.99,Weather View 32 v60,2013-02-09 17:59:00,
2013-02-09 13:09:00,61.0,14.4,30.15,ESE,120,0.0,6.0,16,0.00,,,-99.99,Weather View 32 v60,2013-02-09 18:09:00,
2013-02-09 13:14:00,61.3,14.7,30.15,SSE,157,4.0,7.0,16,0.00,,,-99.99,Weather View 32 v60,2013-02-09 18:14:00,
2013-02-09 13:19:00,61.7,15.0,30.15,SE,124,4.0,7.0,16,0.00,,,-99.99,Weather View 32 v60,2013-02-09 18:19:00,
2013-02-09 13:29:00,62.6,15.7,30.15,SSE,166,0.0,7.0,16,0.00,,,-99.99,Weather View 32 v60,2013-02-09 18:29:00,
2013-02-09 13:34:00,62.8,15.8,30.15,South,173,4.0,7.0,16,0.00,,,-99.99,Weather View 32 v60,2013-02-09 18:34:00,
2013-02-09 13:44:00,63.3,16.3,30.15,SE,131,6.0,7.0,16,0.00,,,-99.99,Weather View 32 v60,2013-02-09 18:44:00,
2013-02-09 13:49:00,63.7,15.1,30.15,SE,137,4.0,7.0,15,0.00,,,-99.99,Weather View 32 v60,2013-02-09 18:49:00,
2013-02-09 13:54:00,63.7,15.1,30.15,SE,135,4.0,7.0,15,0.00,,,-99.99,Weather View 32 v60,2013-02-09 18:54:00,
2013-02-09 13:59:00,63.9,15.2,30.15,ESE,111,4.0,7.0,15,0.00,,,-99.99,Weather View 32 v60,2013-02-09 18:59:00,
2013-02-09 14:04:00,63.9,15.2,30.12,SE,129,6.0,7.0,15,0.00,,,-99.99,Weather View 32 v60,2013-02-09 19:04:00,
2013-02-09 14:14:00,64.2,15.5,30.12,SE,130,4.0,7.0,15,0.00,,,-99.99,Weather View 32 v60,2013-02-09 19:14:00,
2013-02-09 14:19:00,64.2,15.5,30.12,SE,133,4.0,7.0,15,0.00,,,-99.99,Weather View 32 v60,2013-02-09 19:19:00,
2013-02-09 14:29:00,64.4,15.7,30.12,SE,136,4.0,7.0,15,0.00,,,-99.99,Weather View 32 v60,2013-02-09 19:29:00,
2013-02-09 14:34:00,64.6,15.8,30.12,ESE,123,4.0,7.0,15,0.00,,,-99.99,Weather View 32 v60,2013-02-09 19:34:00,
2013-02-09 14:39:00,64.8,15.9,30.12,SE,142,4.0,7.0,15,0.00,,,-99.99,Weather View 32 v60,2013-02-09 19:39:00,
2013-02-09 14:44:00,64.8,15.9,30.12,SE,129,3.0,7.0,15,0.00,,,-99.99,Weather View 32 v60,2013-02-09 19:44:00,
2013-02-09 14:54:00,65.1,16.2,30.12,SE,134,4.0,7.0,15,0.00,,,-99.99,Weather View 32 v60,2013-02-09 19:54:00,
2013-02-09 15:04:00,64.9,16.1,30.12,SE,127,6.0,7.0,15,0.00,,,-99.99,Weather View 32 v60,2013-02-09 20:04:00,
2013-02-09 15:14:00,64.9,16.1,30.12,SE,129,0.0,7.0,15,0.00,,,-99.99,Weather View 32 v60,2013-02-09 20:14:00,
2013-02-09 15:19:00,65.3,16.4,30.09,SE,133,4.0,7.0,15,0.00,,,-99.99,Weather View 32 v60,2013-02-09 20:19:00,
2013-02-09 15:29:00,64.9,16.1,30.09,SE,134,7.0,7.0,15,0.00,,,-99.99,Weather View 32 v60,2013-02-09 20:29:00,
2013-02-09 15:34:00,64.9,16.1,30.12,SE,128,6.0,7.0,15,0.00,,,-99.99,Weather View 32 v60,2013-02-09 20:34:00,
2013-02-09 15:39:00,64.8,15.9,30.12,SE,137,4.0,7.0,15,0.00,,,-99.99,Weather View 32 v60,2013-02-09 20:39:00,
2013-02-09 15:49:00,64.6,15.8,30.12,SE,135,4.0,7.0,15,0.00,,,-99.99,Weather View 32 v60,2013-02-09 20:49:00,
2013-02-09 15:54:00,64.4,15.7,30.12,SE,139,6.0,7.0,15,0.00,,,-99.99,Weather View 32 v60,2013-02-09 20:54:00,
2013-02-09 15:59:00,64.2,15.5,30.12,East,96,5.0,7.0,15,0.00,,,-99.99,Weather View 32 v60,2013-02-09 20:59:00,
2013-02-09 16:09:00,63.3,16.3,30.12,SSE,154,0.0,7.0,16,0.00,,,-99.99,Weather View 32 v60,2013-02-09 21:09:00,
2013-02-09 16:14:00,63.1,16.1,30.12,SSE,159,0.0,7.0,16,0.00,,,-99.99,Weather View 32 v60,2013-02-09 21:14:00,
2013-02-09 16:19:00,63.1,16.1,30.12,SE,128,0.0,7.0,16,0.00,,,-99.99,Weather View 32 v60,2013-02-09 21:19:00,
2013-02-09 16:24:00,63.1,16.1,30.12,SE,134,3.0,7.0,16,0.00,,,-99.99,Weather View 32 v60,2013-02-09 21:24:00,
2013-02-09 16:29:00,62.8,15.8,30.12,SE,138,5.0,7.0,16,0.00,,,-99.99,Weather View 32 v60,2013-02-09 21:29:00,
2013-02-09 16:39:00,62.4,15.5,30.12,ESE,109,4.0,7.0,16,0.00,,,-99.99,Weather View 32 v60,2013-02-09 21:39:00,
2013-02-09 16:44:00,62.4,15.5,30.12,SE,125,0.0,6.0,16,0.00,,,-99.99,Weather View 32 v60,2013-02-09 21:44:00,
2013-02-09 16:49:00,62.2,15.4,30.12,West,269,3.0,6.0,16,0.00,,,-99.99,Weather View 32 v60,2013-02-09 21:49:00,
2013-02-09 16:55:00,62.1,15.3,30.12,SE,142,0.0,6.0,16,0.00,,,-99.99,Weather View 32 v60,2013-02-09 21:55:00,
2013-02-09 17:01:00,61.7,15.0,30.12,SE,140,0.0,6.0,16,0.00,,,-99.99,Weather View 32 v60,2013-02-09 22:01:00,
2013-02-09 17:09:00,61.2,14.5,30.09,SE,126,4.0,6.0,16,0.00,,,-99.99,Weather View 32 v60,2013-02-09 22:09:00,
2013-02-09 17:19:00,60.6,14.1,30.12,SE,134,4.0,6.0,16,0.00,,,-99.99,Weather View 32 v60,2013-02-09 22:19:00,
2013-02-09 17:24:00,60.4,13.9,30.12,SE,131,3.0,6.0,16,0.00,,,-99.99,Weather View 32 v60,2013-02-09 22:24:00,
2013-02-09 17:29:00,60.1,13.7,30.12,SE,135,0.0,5.0,16,0.00,,,-99.99,Weather View 32 v60,2013-02-09 22:29:00,
2013-02-09 17:39:00,59.4,14.5,30.12,SE,130,0.0,5.0,17,0.00,,,-99.99,Weather View 32 v60,2013-02-09 22:39:00,
2013-02-09 17:44:00,58.8,14.0,30.12,SE,130,0.0,5.0,17,0.00,,,-99.99,Weather View 32 v60,2013-02-09 22:44:00,
2013-02-09 17:49:00,58.5,13.7,30.12,SE,130,0.0,5.0,17,0.00,,,-99.99,Weather View 32 v60,2013-02-09 22:49:00,
2013-02-09 17:59:00,57.9,13.3,30.12,SE,130,0.0,5.0,17,0.00,,,-99.99,Weather View 32 v60,2013-02-09 22:59:00,
2013-02-09 18:04:00,57.4,12.8,30.12,SE,130,0.0,4.0,17,0.00,,,-99.99,Weather View 32 v60,2013-02-09 23:04:00,
2013-02-09 18:09:00,56.8,12.4,30.12,SE,130,0.0,4.0,17,0.00,,,-99.99,Weather View 32 v60,2013-02-09 23:09:00,
2013-02-09 18:14:00,56.3,12.0,30.12,SE,130,0.0,4.0,17,0.00,,,-99.99,Weather View 32 v60,2013-02-09 23:14:00,
2013-02-09 18:24:00,55.2,11.1,30.12,SE,130,0.0,4.0,17,0.00,,,-99.99,Weather View 32 v60,2013-02-09 23:24:00,
2013-02-09 18:29:00,54.7,10.6,30.12,SE,130,0.0,4.0,17,0.00,,,-99.99,Weather View 32 v60,2013-02-09 23:29:00,
2013-02-09 18:34:00,54.5,11.8,30.12,SE,130,0.0,4.0,18,0.00,,,-99.99,Weather View 32 v60,2013-02-09 23:34:00,
2013-02-09 18:39:00,54.0,11.3,30.12,SE,130,0.0,3.0,18,0.00,,,-99.99,Weather View 32 v60,2013-02-09 23:39:00,
2013-02-09 18:45:00,53.6,11.0,30.12,SE,130,0.0,3.0,18,0.00,,,-99.99,Weather View 32 v60,2013-02-09 23:45:00,
2013-02-09 18:54:00,53.1,10.6,30.12,SE,130,0.0,0.0,18,0.00,,,-99.99,Weather View 32 v60,2013-02-09 23:54:00,
2013-02-09 19:02:00,52.7,10.3,30.12,SE,130,0.0,0.0,18,0.00,,,-99.99,Weather View 32 v60,2013-02-10 00:02:00,
2013-02-09 19:09:00,52.0,9.7,30.12,SE,130,0.0,0.0,18,0.00,,,-99.99,Weather View 32 v60,2013-02-10 00:09:00,
2013-02-09 19:14:00,51.6,9.4,30.12,SE,130,0.0,0.0,18,0.00,,,-99.99,Weather View 32 v60,2013-02-10 00:14:00,
2013-02-09 19:24:00,50.9,8.8,30.15,SE,130,0.0,0.0,18,0.00,,,-99.99,Weather View 32 v60,2013-02-10 00:24:00,
2013-02-09 19:30:00,50.5,9.7,30.15,SE,130,0.0,0.0,19,0.00,,,-99.99,Weather View 32 v60,2013-02-10 00:30:00,
2013-02-09 19:39:00,49.8,9.1,30.15,SE,130,0.0,0.0,19,0.00,,,-99.99,Weather View 32 v60,2013-02-10 00:39:00,
2013-02-09 19:44:00,49.3,8.7,30.15,SE,130,0.0,0.0,19,0.00,,,-99.99,Weather View 32 v60,2013-02-10 00:44:00,
2013-02-09 19:54:00,48.6,8.1,30.15,SE,130,0.0,0.0,19,0.00,,,-99.99,Weather View 32 v60,2013-02-10 00:54:00,
2013-02-09 20:02:00,48.2,7.8,30.15,SE,130,0.0,0.0,19,0.00,,,-99.99,Weather View 32 v60,2013-02-10 01:02:00,
2013-02-09 20:09:00,47.5,7.2,30.15,SE,130,0.0,0.0,19,0.00,,,-99.99,Weather View 32 v60,2013-02-10 01:09:00,
2013-02-09 20:14:00,47.1,6.9,30.15,SE,130,0.0,0.0,19,0.00,,,-99.99,Weather View 32 v60,2013-02-10 01:14:00,
2013-02-09 20:19:00,46.9,6.8,30.15,SE,130,0.0,0.0,19,0.00,,,-99.99,Weather View 32 v60,2013-02-10 01:19:00,
2013-02-09 20:29:00,46.4,6.3,30.15,SE,130,0.0,0.0,19,0.00,,,-99.99,Weather View 32 v60,2013-02-10 01:29:00,
2013-02-09 20:34:00,46.0,6.0,30.18,SE,130,0.0,0.0,19,0.00,,,-99.99,Weather View 32 v60,2013-02-10 01:34:00,
2013-02-09 20:44:00,45.3,6.5,30.18,SE,130,0.0,0.0,20,0.00,,,-99.99,Weather View 32 v60,2013-02-10 01:44:00,
2013-02-09 20:55:00,44.8,6.1,30.18,SE,130,0.0,0.0,20,0.00,,,-99.99,Weather View 32 v60,2013-02-10 01:55:00,
2013-02-09 21:03:00,44.6,5.9,30.18,SE,130,0.0,0.0,20,0.00,,,-99.99,Weather View 32 v60,2013-02-10 02:03:00,
2013-02-09 21:09:00,44.1,5.5,30.18,SE,130,0.0,0.0,20,0.00,,,-99.99,Weather View 32 v60,2013-02-10 02:09:00,
2013-02-09 21:19:00,43.5,5.1,30.18,SE,130,0.0,0.0,20,0.00,,,-99.99,Weather View 32 v60,2013-02-10 02:19:00,
2013-02-09 21:29:00,43.3,4.9,30.18,SE,130,0.0,0.0,20,0.00,,,-99.99,Weather View 32 v60,2013-02-10 02:29:00,
2013-02-09 21:39:00,43.2,4.8,30.18,SE,130,0.0,0.0,20,0.00,,,-99.99,Weather View 32 v60,2013-02-10 02:39:00,
2013-02-09 21:44:00,43.0,4.6,30.18,SE,130,0.0,0.0,20,0.00,,,-99.99,Weather View 32 v60,2013-02-10 02:44:00,
2013-02-09 21:49:00,43.0,4.6,30.18,SE,130,0.0,0.0,20,0.00,,,-99.99,Weather View 32 v60,2013-02-10 02:49:00,
2013-02-09 21:54:00,42.8,4.4,30.18,SE,130,0.0,0.0,20,0.00,,,-99.99,Weather View 32 v60,2013-02-10 02:54:00,
2013-02-09 22:04:00,42.6,4.3,30.18,SE,130,0.0,0.0,20,0.00,,,-99.99,Weather View 32 v60,2013-02-10 03:04:00,
2013-02-09 22:09:00,42.1,3.8,30.18,SE,130,0.0,0.0,20,0.00,,,-99.99,Weather View 32 v60,2013-02-10 03:09:00,
2013-02-09 22:14:00,41.7,4.6,30.18,SE,130,0.0,0.0,21,0.00,,,-99.99,Weather View 32 v60,2013-02-10 03:14:00,
2013-02-09 22:19:00,41.5,4.5,30.18,SE,130,0.0,0.0,21,0.00,,,-99.99,Weather View 32 v60,2013-02-10 03:19:00,
2013-02-09 22:29:00,41.2,4.2,30.18,SE,130,0.0,0.0,21,0.00,,,-99.99,Weather View 32 v60,2013-02-10 03:29:00,
2013-02-09 22:34:00,41.0,4.0,30.18,SE,130,0.0,0.0,21,0.00,,,-99.99,Weather View 32 v60,2013-02-10 03:34:00,
2013-02-09 22:44:00,40.5,3.6,30.18,SE,130,0.0,0.0,21,0.00,,,-99.99,Weather View 32 v60,2013-02-10 03:44:00,
2013-02-09 22:49:00,40.3,3.4,30.18,SE,130,0.0,0.0,21,0.00,,,-99.99,Weather View 32 v60,2013-02-10 03:49:00,
2013-02-09 22:55:00,40.1,3.3,30.18,SE,130,0.0,0.0,21,0.00,,,-99.99,Weather View 32 v60,2013-02-10 03:55:00,
2013-02-09 23:04:00,39.9,3.1,30.18,SE,130,0.0,0.0,21,0.00,,,-99.99,Weather View 32 v60,2013-02-10 04:04:00,
2013-02-09 23:14:00,39.7,3.0,30.18,SE,130,0.0,0.0,21,0.00,,,-99.99,Weather View 32 v60,2013-02-10 04:14:00,
2013-02-09 23:24:00,39.6,2.8,30.18,SE,130,0.0,0.0,21,0.00,,,-99.99,Weather View 32 v60,2013-02-10 04:24:00,
2013-02-09 23:34:00,39.6,2.8,30.18,SE,130,0.0,0.0,21,0.00,,,-99.99,Weather View 32 v60,2013-02-10 04:34:00,
2013-02-09 23:39:00,39.4,2.6,30.18,SE,130,0.0,0.0,21,0.00,,,-99.99,Weather View 32 v60,2013-02-10 04:39:00,
2013-02-09 23:44:00,39.4,2.6,30.18,SE,130,0.0,0.0,21,0.00,,,-99.99,Weather View 32 v60,2013-02-10 04:44:00,
2013-02-09 23:54:00,39.2,2.5,30.18,SE,130,0.0,0.0,21,0.00,,,-99.99,Weather View 32 v60,2013-02-10 04:54:00,
2013-02-09 23:59:00,39.2,2.5,30.18,SE,130,0.0,0.0,21,0.00,,,-99.99,Weather View 32 v60,2013-02-10 04:59:00,